DAL2311 KLAX-KSLC

Flight info

Callsign DAL2311
Flight time 1h 18m
Altitude 35000
Route ORCKA5 LAS Q70 BLIPP Q842 WINEN DCT MLF QWENN6
Aircraft A321/M-SDE3FGHIRWY/LB1

Departure

Time 2026-05-03 23:14
Airport Los Angeles International Airport (KLAX)

Arrival

Time 2026-05-04 00:33
Airport Salt Lake City International Airport (KSLC)
Time Latitude Longitude Altitude Speed Heading
2026-05-03 22:32 33.94686 -118.40821 93 ft 0 kts 137°
2026-05-03 22:56 33.94696 -118.40833 93 ft 4 kts 137°
2026-05-03 22:57 33.94712 -118.40850 93 ft 4 kts 136°
2026-05-03 22:57 33.94730 -118.40874 92 ft 4 kts 126°
2026-05-03 22:57 33.94743 -118.40901 94 ft 4 kts 107°
2026-05-03 22:57 33.94746 -118.40929 91 ft 3 kts 83°
2026-05-03 22:58 33.94744 -118.40953 93 ft 0 kts 83°
2026-05-03 23:01 33.94749 -118.40901 95 ft 12 kts 83°
2026-05-03 23:01 33.94759 -118.40801 99 ft 10 kts 83°
2026-05-03 23:01 33.94762 -118.40769 96 ft 0 kts 82°
2026-05-03 23:02 33.94762 -118.40768 96 ft 0 kts 82°
2026-05-03 23:03 33.94766 -118.40737 95 ft 9 kts 82°
2026-05-03 23:03 33.94779 -118.40619 93 ft 18 kts 84°
2026-05-03 23:03 33.94792 -118.40474 94 ft 17 kts 82°
2026-05-03 23:03 33.94807 -118.40343 95 ft 15 kts 81°
2026-05-03 23:04 33.94825 -118.40226 93 ft 13 kts 79°
2026-05-03 23:04 33.94838 -118.40122 93 ft 12 kts 83°
2026-05-03 23:04 33.94869 -118.40071 93 ft 7 kts
2026-05-03 23:04 33.94909 -118.40070 94 ft 3 kts
2026-05-03 23:05 33.94910 -118.40070 94 ft 0 kts
2026-05-03 23:12 33.94916 -118.40069 93 ft 2 kts
2026-05-03 23:12 33.94935 -118.40066 93 ft 8 kts
2026-05-03 23:13 33.95010 -118.40080 98 ft 10 kts 322°
2026-05-03 23:13 33.95022 -118.40140 98 ft 7 kts 267°
2026-05-03 23:13 33.95005 -118.40320 100 ft 50 kts 262°
2026-05-03 23:13 33.94935 -118.40989 97 ft 109 kts 263°
2026-05-03 23:14 33.94823 -118.42080 98 ft 152 kts 263°
2026-05-03 23:14 33.94687 -118.43379 559 ft 154 kts 262°
2026-05-03 23:14 33.94538 -118.44641 1204 ft 151 kts 260°
2026-05-03 23:14 33.94389 -118.45906 1757 ft 154 kts 259°
2026-05-03 23:15 33.94236 -118.47227 2062 ft 170 kts 261°
2026-05-03 23:15 33.94062 -118.48733 2307 ft 186 kts 260°
2026-05-03 23:15 33.93871 -118.50363 2506 ft 208 kts 261°
2026-05-03 23:15 33.93651 -118.52226 2681 ft 246 kts 261°
2026-05-03 23:16 33.93412 -118.54321 3625 ft 254 kts 260°
2026-05-03 23:16 33.93176 -118.56480 4476 ft 264 kts 262°
2026-05-03 23:16 33.92945 -118.58696 4871 ft 267 kts 262°
2026-05-03 23:16 33.92662 -118.60898 4976 ft 264 kts 252°
2026-05-03 23:17 33.91837 -118.62835 5000 ft 259 kts 229°
2026-05-03 23:17 33.90449 -118.64183 5002 ft 258 kts 205°
2026-05-03 23:17 33.88714 -118.64728 5008 ft 260 kts 182°
2026-05-03 23:17 33.86923 -118.64328 5348 ft 268 kts 157°
2026-05-03 23:18 33.85391 -118.63055 6190 ft 273 kts 134°
2026-05-03 23:18 33.84405 -118.61073 6866 ft 284 kts 109°
2026-05-03 23:18 33.84263 -118.58686 7526 ft 294 kts 81°
2026-05-03 23:18 33.85068 -118.56419 8197 ft 300 kts 55°
2026-05-03 23:19 33.86329 -118.54399 8936 ft 304 kts 53°
2026-05-03 23:19 33.87621 -118.52362 9669 ft 308 kts 53°
2026-05-03 23:19 33.88931 -118.50295 10316 ft 315 kts 54°
2026-05-03 23:19 33.90302 -118.48121 10490 ft 337 kts 54°
2026-05-03 23:20 33.91761 -118.45797 10651 ft 357 kts 54°
2026-05-03 23:20 33.93251 -118.43407 11136 ft 365 kts 54°
2026-05-03 23:20 33.94736 -118.40907 11719 ft 369 kts 56°
2026-05-03 23:20 33.96196 -118.38345 12351 ft 373 kts 57°
2026-05-03 23:21 33.97650 -118.35733 12934 ft 377 kts 57°
2026-05-03 23:21 33.99115 -118.33092 13538 ft 381 kts 57°
2026-05-03 23:21 34.00600 -118.30425 14103 ft 386 kts 57°
2026-05-03 23:21 34.02111 -118.27728 14607 ft 391 kts 57°
2026-05-03 23:22 34.05223 -118.22234 15637 ft 401 kts 56°
2026-05-03 23:22 34.06810 -118.19442 16146 ft 406 kts 56°
2026-05-03 23:22 34.08417 -118.16609 16644 ft 411 kts 56°
2026-05-03 23:23 34.10039 -118.13744 17143 ft 416 kts 56°
2026-05-03 23:23 34.11678 -118.10837 17651 ft 421 kts 56°
2026-05-03 23:23 34.13332 -118.07897 18146 ft 426 kts 56°
2026-05-03 23:23 34.15007 -118.04918 18542 ft 431 kts 55°
2026-05-03 23:24 34.16706 -118.01904 18919 ft 437 kts 54°
2026-05-03 23:24 34.18425 -117.98858 19325 ft 442 kts 54°
2026-05-03 23:24 34.20166 -117.95769 19724 ft 447 kts 54°
2026-05-03 23:24 34.21921 -117.92649 20078 ft 452 kts 55°
2026-05-03 23:25 34.23694 -117.89491 20414 ft 457 kts 54°
2026-05-03 23:25 34.25484 -117.86296 20785 ft 461 kts 54°
2026-05-03 23:25 34.27286 -117.83079 21153 ft 466 kts 54°
2026-05-03 23:25 34.29114 -117.79813 21516 ft 471 kts 54°
2026-05-03 23:26 34.30957 -117.76517 21918 ft 474 kts 54°
2026-05-03 23:26 34.32810 -117.73206 22312 ft 478 kts 55°
2026-05-03 23:26 34.34681 -117.69857 22647 ft 483 kts 53°
2026-05-03 23:26 34.36590 -117.66486 22989 ft 488 kts 52°
2026-05-03 23:27 34.38565 -117.63124 23312 ft 493 kts 51°
2026-05-03 23:27 34.40595 -117.59759 23639 ft 496 kts 51°
2026-05-03 23:27 34.42649 -117.56393 23941 ft 499 kts 50°
2026-05-03 23:27 34.44717 -117.53001 24235 ft 502 kts 51°
2026-05-03 23:28 34.46790 -117.49572 24581 ft 506 kts 51°
2026-05-03 23:28 34.48856 -117.46114 24897 ft 508 kts 51°
2026-05-03 23:28 34.50916 -117.42636 25268 ft 509 kts 51°
2026-05-03 23:28 34.52980 -117.39139 25601 ft 511 kts 51°
2026-05-03 23:29 34.55053 -117.35621 25925 ft 513 kts 51°
2026-05-03 23:29 34.57136 -117.32090 26240 ft 515 kts 51°
2026-05-03 23:29 34.59230 -117.28548 26561 ft 518 kts 51°
2026-05-03 23:29 34.61307 -117.25041 26857 ft 520 kts 51°
2026-05-03 23:30 34.63452 -117.21421 27152 ft 522 kts 51°
2026-05-03 23:30 34.65548 -117.17882 27375 ft 524 kts 51°
2026-05-03 23:30 34.67676 -117.14279 27654 ft 527 kts 51°
2026-05-03 23:30 34.69815 -117.10650 27941 ft 529 kts 51°
2026-05-03 23:31 34.71959 -117.06999 28222 ft 531 kts 51°
2026-05-03 23:31 34.74106 -117.03332 28509 ft 533 kts 51°
2026-05-03 23:31 34.76261 -116.99653 28775 ft 535 kts 51°
2026-05-03 23:31 34.78429 -116.95958 29048 ft 537 kts 51°
2026-05-03 23:32 34.80604 -116.92251 29320 ft 540 kts 51°
2026-05-03 23:32 34.82788 -116.88527 29617 ft 542 kts 50°
2026-05-03 23:32 34.84983 -116.84784 29837 ft 543 kts 50°
2026-05-03 23:32 34.87178 -116.81034 30095 ft 545 kts 50°
2026-05-03 23:33 34.89378 -116.77267 30321 ft 546 kts 51°
2026-05-03 23:33 34.91598 -116.73513 30594 ft 545 kts 47°
2026-05-03 23:33 34.94063 -116.70034 30913 ft 540 kts 41°
2026-05-03 23:33 34.96615 -116.66682 31233 ft 539 kts 41°
2026-05-03 23:34 34.99164 -116.63335 31559 ft 538 kts 41°
2026-05-03 23:34 35.01710 -116.59986 31879 ft 538 kts 41°
2026-05-03 23:34 35.04249 -116.56637 32201 ft 537 kts 42°
2026-05-03 23:34 35.06781 -116.53293 32558 ft 536 kts 42°
2026-05-03 23:35 35.09308 -116.49954 32907 ft 534 kts 42°
2026-05-03 23:35 35.11827 -116.46623 33224 ft 534 kts 41°
2026-05-03 23:35 35.14345 -116.43294 33538 ft 533 kts 41°
2026-05-03 23:35 35.16858 -116.39970 33873 ft 532 kts 42°
2026-05-03 23:36 35.18520 -116.37771 34064 ft 531 kts 41°
2026-05-03 23:36 35.21025 -116.34449 34338 ft 531 kts 42°
2026-05-03 23:36 35.23520 -116.31128 34570 ft 531 kts 42°
2026-05-03 23:36 35.26018 -116.27802 34728 ft 531 kts 42°
2026-05-03 23:37 35.30970 -116.21199 34748 ft 524 kts 42°
2026-05-03 23:37 35.35884 -116.14638 34748 ft 522 kts 42°
2026-05-03 23:38 35.40786 -116.08084 34761 ft 521 kts 42°
2026-05-03 23:38 35.45683 -116.01524 34761 ft 521 kts 42°
2026-05-03 23:39 35.50577 -115.94954 34788 ft 521 kts 42°
2026-05-03 23:39 35.55471 -115.88377 34803 ft 522 kts 42°
2026-05-03 23:40 35.60370 -115.81778 34798 ft 523 kts 41°
2026-05-03 23:40 35.65261 -115.75157 34818 ft 523 kts 42°
2026-05-03 23:41 35.70122 -115.68485 34821 ft 524 kts 43°
2026-05-03 23:41 35.74964 -115.61787 34824 ft 524 kts 43°
2026-05-03 23:42 35.79803 -115.55086 34833 ft 524 kts 43°
2026-05-03 23:42 35.84633 -115.48415 34861 ft 524 kts 42°
2026-05-03 23:43 35.89494 -115.41706 34842 ft 525 kts 42°
2026-05-03 23:43 35.94355 -115.34970 34832 ft 526 kts 42°
2026-05-03 23:44 35.99208 -115.28218 34810 ft 526 kts 43°
2026-05-03 23:44 36.04057 -115.21455 34792 ft 526 kts 43°
2026-05-03 23:45 36.09015 -115.14855 34795 ft 519 kts 34°
2026-05-03 23:45 36.14448 -115.09015 34798 ft 517 kts 34°
2026-05-03 23:46 36.19886 -115.03170 34746 ft 519 kts 33°
2026-05-03 23:46 36.25334 -114.97300 34725 ft 519 kts 33°
2026-05-03 23:47 36.30779 -114.91405 34725 ft 520 kts 33°
2026-05-03 23:47 36.36223 -114.85493 34719 ft 520 kts 33°
2026-05-03 23:48 36.41629 -114.79626 34705 ft 520 kts 33°
2026-05-03 23:48 36.47053 -114.73749 34706 ft 522 kts 33°
2026-05-03 23:49 36.52517 -114.67801 34689 ft 523 kts 33°
2026-05-03 23:49 36.57978 -114.61827 34681 ft 523 kts 33°
2026-05-03 23:50 36.63446 -114.55837 34674 ft 523 kts 33°
2026-05-03 23:50 36.68917 -114.49844 34708 ft 524 kts 33°
2026-05-03 23:51 36.74717 -114.44594 34732 ft 510 kts 22°
2026-05-03 23:51 36.80742 -114.39899 34726 ft 511 kts 22°
2026-05-03 23:52 36.86768 -114.35184 34727 ft 511 kts 23°
2026-05-03 23:52 36.92783 -114.30452 34737 ft 510 kts 23°
2026-05-03 23:53 36.98783 -114.25713 34747 ft 511 kts 23°
2026-05-03 23:53 37.04795 -114.20956 34767 ft 510 kts 24°
2026-05-03 23:54 37.10788 -114.16212 34766 ft 509 kts 24°
2026-05-03 23:54 37.16786 -114.11476 34784 ft 510 kts 24°
2026-05-03 23:55 37.22777 -114.06719 34785 ft 510 kts 24°
2026-05-03 23:55 37.28763 -114.01943 34824 ft 510 kts 25°
2026-05-03 23:56 37.34745 -113.97165 34834 ft 509 kts 25°
2026-05-03 23:56 37.40706 -113.92408 34830 ft 507 kts 25°
2026-05-03 23:57 37.46664 -113.87655 34843 ft 506 kts 25°
2026-05-03 23:57 37.52609 -113.82897 34838 ft 506 kts 25°
2026-05-03 23:58 37.58525 -113.78139 34866 ft 505 kts 26°
2026-05-03 23:58 37.64451 -113.73371 34862 ft 503 kts 27°
2026-05-03 23:59 37.70345 -113.68621 34862 ft 502 kts 27°
2026-05-03 23:59 37.76225 -113.63863 34859 ft 502 kts 27°
2026-05-04 00:00 37.82102 -113.59112 34883 ft 501 kts 28°
2026-05-04 00:00 37.87968 -113.54365 34865 ft 500 kts 28°
2026-05-04 00:01 37.93746 -113.49480 34852 ft 502 kts 35°
2026-05-04 00:01 37.98984 -113.43600 34843 ft 503 kts 38°
2026-05-04 00:02 38.04201 -113.37688 34836 ft 503 kts 38°
2026-05-04 00:02 38.09416 -113.31775 34849 ft 503 kts 39°
2026-05-04 00:03 38.14579 -113.25897 34851 ft 501 kts 39°
2026-05-04 00:03 38.19753 -113.19987 34883 ft 499 kts 39°
2026-05-04 00:04 38.24912 -113.14085 34910 ft 498 kts 39°
2026-05-04 00:04 38.30059 -113.08185 34929 ft 498 kts 39°
2026-05-04 00:05 38.35317 -113.02489 34951 ft 493 kts 30°
2026-05-04 00:05 38.41333 -112.98507 34950 ft 485 kts 17°
2026-05-04 00:06 38.47563 -112.95196 34949 ft 485 kts 18°
2026-05-04 00:06 38.53790 -112.91868 34930 ft 485 kts 18°
2026-05-04 00:07 38.60023 -112.88532 34723 ft 485 kts 18°
2026-05-04 00:07 38.63126 -112.86869 34477 ft 482 kts 19°
2026-05-04 00:07 38.66215 -112.85211 34227 ft 481 kts 19°
2026-05-04 00:08 38.69299 -112.83558 33967 ft 480 kts 19°
2026-05-04 00:08 38.72373 -112.81912 33710 ft 480 kts 19°
2026-05-04 00:08 38.75457 -112.80260 33441 ft 480 kts 19°
2026-05-04 00:08 38.78542 -112.78605 33169 ft 480 kts 20°
2026-05-04 00:09 38.81618 -112.76951 32878 ft 480 kts 20°
2026-05-04 00:09 38.84699 -112.75291 32624 ft 478 kts 20°
2026-05-04 00:09 38.87749 -112.73640 32358 ft 474 kts 21°
2026-05-04 00:09 38.90773 -112.72001 32092 ft 470 kts 21°
2026-05-04 00:10 38.93774 -112.70378 31608 ft 466 kts 21°
2026-05-04 00:10 38.96757 -112.68765 31063 ft 464 kts 21°
2026-05-04 00:10 38.99723 -112.67158 30525 ft 461 kts 21°
2026-05-04 00:10 39.02671 -112.65562 29998 ft 459 kts 21°
2026-05-04 00:11 39.05605 -112.63971 29414 ft 456 kts 22°
2026-05-04 00:11 39.08511 -112.62394 28904 ft 451 kts 22°
2026-05-04 00:11 39.11390 -112.60832 28394 ft 447 kts 22°
2026-05-04 00:11 39.14238 -112.59284 27888 ft 442 kts 22°
2026-05-04 00:12 39.17059 -112.57748 27404 ft 438 kts 22°
2026-05-04 00:12 39.19851 -112.56224 26918 ft 434 kts 22°
2026-05-04 00:12 39.22619 -112.54712 26444 ft 430 kts 22°
2026-05-04 00:12 39.25360 -112.53217 25975 ft 425 kts 22°
2026-05-04 00:13 39.28069 -112.51740 25523 ft 421 kts 22°
2026-05-04 00:13 39.30755 -112.50270 25077 ft 417 kts 22°
2026-05-04 00:13 39.33404 -112.48791 24648 ft 413 kts 23°
2026-05-04 00:13 39.36025 -112.47298 24212 ft 410 kts 23°
2026-05-04 00:14 39.38614 -112.45802 23774 ft 406 kts 24°
2026-05-04 00:14 39.41181 -112.44310 23338 ft 403 kts 23°
2026-05-04 00:14 39.43726 -112.42831 22870 ft 399 kts 23°
2026-05-04 00:14 39.46244 -112.41373 22436 ft 394 kts 23°
2026-05-04 00:15 39.48730 -112.39939 22013 ft 390 kts 23°
2026-05-04 00:15 39.51206 -112.38513 21578 ft 387 kts 23°
2026-05-04 00:15 39.53654 -112.37103 21152 ft 383 kts 23°
2026-05-04 00:15 39.56083 -112.35704 20721 ft 381 kts 23°
2026-05-04 00:16 39.58485 -112.34321 20285 ft 378 kts 23°
2026-05-04 00:16 39.60857 -112.32955 19863 ft 375 kts 23°
2026-05-04 00:16 39.63234 -112.31582 19432 ft 373 kts 23°
2026-05-04 00:16 39.65596 -112.30216 19006 ft 371 kts 24°
2026-05-04 00:17 39.67947 -112.28854 18583 ft 369 kts 24°
2026-05-04 00:17 39.70286 -112.27499 18158 ft 367 kts 24°
2026-05-04 00:17 39.72606 -112.26154 17752 ft 363 kts 24°
2026-05-04 00:17 39.74904 -112.24825 17341 ft 359 kts 24°
2026-05-04 00:18 39.77175 -112.23506 16913 ft 356 kts 24°
2026-05-04 00:18 39.79425 -112.22200 16526 ft 353 kts 24°
2026-05-04 00:18 39.81656 -112.20899 16143 ft 352 kts 24°
2026-05-04 00:18 39.83892 -112.19590 15761 ft 352 kts 23°
2026-05-04 00:19 39.86115 -112.18284 15350 ft 349 kts 23°
2026-05-04 00:19 39.88321 -112.16986 14935 ft 347 kts 24°
2026-05-04 00:19 39.90518 -112.15703 14532 ft 345 kts 23°
2026-05-04 00:19 39.92704 -112.14430 14140 ft 343 kts 23°
2026-05-04 00:20 39.94851 -112.13186 14008 ft 332 kts 23°
2026-05-04 00:20 39.96938 -112.11994 13844 ft 324 kts 20°
2026-05-04 00:20 39.99059 -112.11119 13690 ft 317 kts 16°
2026-05-04 00:20 40.01170 -112.10288 13576 ft 317 kts 16°
2026-05-04 00:21 40.03276 -112.09451 13439 ft 316 kts 16°
2026-05-04 00:21 40.05367 -112.08619 13290 ft 312 kts 16°
2026-05-04 00:21 40.07441 -112.07791 13139 ft 311 kts 16°
2026-05-04 00:21 40.09507 -112.06965 13017 ft 310 kts 16°
2026-05-04 00:22 40.11566 -112.06143 12873 ft 309 kts 16°
2026-05-04 00:22 40.12929 -112.05599 12779 ft 309 kts 16°
2026-05-04 00:22 40.14983 -112.04779 12634 ft 308 kts 16°
2026-05-04 00:22 40.17033 -112.03957 12493 ft 308 kts 16°
2026-05-04 00:23 40.19080 -112.03138 12351 ft 307 kts 15°
2026-05-04 00:23 40.21123 -112.02320 12204 ft 307 kts 16°
2026-05-04 00:23 40.23159 -112.01502 12061 ft 306 kts 16°
2026-05-04 00:23 40.25192 -112.00685 11915 ft 305 kts 16°
2026-05-04 00:24 40.27223 -111.99870 11768 ft 305 kts 15°
2026-05-04 00:24 40.29254 -111.99057 11628 ft 305 kts 16°
2026-05-04 00:24 40.31278 -111.98244 11478 ft 304 kts 16°
2026-05-04 00:24 40.33299 -111.97432 11331 ft 304 kts 16°
2026-05-04 00:25 40.35301 -111.96629 11179 ft 297 kts 16°
2026-05-04 00:25 40.37239 -111.95849 11045 ft 286 kts 16°
2026-05-04 00:25 40.39119 -111.95093 10874 ft 278 kts 16°
2026-05-04 00:25 40.40986 -111.94368 10540 ft 282 kts 15°
2026-05-04 00:26 40.42848 -111.93699 10209 ft 279 kts
2026-05-04 00:26 40.44751 -111.93517 9967 ft 273 kts 354°
2026-05-04 00:26 40.46614 -111.93746 9781 ft 264 kts 353°
2026-05-04 00:26 40.48425 -111.93961 9511 ft 259 kts 354°
2026-05-04 00:27 40.50205 -111.94165 9300 ft 253 kts 353°
2026-05-04 00:27 40.51933 -111.94362 9098 ft 248 kts 353°
2026-05-04 00:27 40.53638 -111.94559 8786 ft 244 kts 354°
2026-05-04 00:27 40.55316 -111.94753 8472 ft 240 kts 354°
2026-05-04 00:28 40.56940 -111.94939 8181 ft 228 kts 353°
2026-05-04 00:28 40.58481 -111.95117 7880 ft 217 kts 353°
2026-05-04 00:28 40.59948 -111.95286 7603 ft 206 kts 352°
2026-05-04 00:28 40.61340 -111.95446 7358 ft 195 kts 353°
2026-05-04 00:29 40.62646 -111.95597 7155 ft 183 kts 354°
2026-05-04 00:29 40.63882 -111.95740 6991 ft 171 kts 354°
2026-05-04 00:29 40.65042 -111.95874 6781 ft 164 kts 354°
2026-05-04 00:29 40.66175 -111.96005 6566 ft 162 kts 355°
2026-05-04 00:30 40.67293 -111.96135 6358 ft 161 kts 355°
2026-05-04 00:30 40.68401 -111.96263 6126 ft 159 kts 354°
2026-05-04 00:30 40.69502 -111.96390 5896 ft 159 kts 353°
2026-05-04 00:30 40.70599 -111.96517 5667 ft 158 kts 353°
2026-05-04 00:31 40.71688 -111.96643 5426 ft 156 kts 354°
2026-05-04 00:31 40.72765 -111.96768 5220 ft 155 kts 353°
2026-05-04 00:31 40.73835 -111.96892 5007 ft 154 kts 354°
2026-05-04 00:31 40.74909 -111.97013 4785 ft 154 kts 351°
2026-05-04 00:32 40.75969 -111.97135 4587 ft 153 kts 353°
2026-05-04 00:32 40.77032 -111.97259 4383 ft 153 kts 352°
2026-05-04 00:32 40.78071 -111.97379 4261 ft 142 kts 352°
2026-05-04 00:32 40.78887 -111.97486 4232 ft 79 kts 355°
2026-05-04 00:33 40.79240 -111.97526 4231 ft 37 kts 352°
2026-05-04 00:33 40.79542 -111.97666 4229 ft 9 kts 308°
2026-05-04 00:33 40.79549 -111.97729 4230 ft 6 kts 256°
2026-05-04 00:34 40.79531 -111.97759 4230 ft 3 kts 216°
2026-05-04 00:34 40.79490 -111.97768 4230 ft 10 kts 177°
2026-05-04 00:34 40.79395 -111.97757 4231 ft 18 kts 175°
2026-05-04 00:34 40.79271 -111.97742 4231 ft 11 kts 175°
2026-05-04 00:35 40.79214 -111.97769 4231 ft 8 kts 236°
2026-05-04 00:35 40.79204 -111.97835 4231 ft 7 kts 262°
2026-05-04 00:35 40.79183 -111.97872 4231 ft 4 kts 195°
2026-05-04 00:35 40.79159 -111.97872 4231 ft 3 kts 179°
2026-05-04 00:36 40.79131 -111.97871 4231 ft 5 kts 179°
2026-05-04 00:36 40.79074 -111.97867 4231 ft 12 kts 174°
2026-05-04 00:36 40.78999 -111.97854 4231 ft 10 kts 163°
2026-05-04 00:36 40.78976 -111.97791 4231 ft 7 kts 89°
2026-05-04 00:37 40.78972 -111.97732 4231 ft 8 kts 115°
2026-05-04 00:37 40.78903 -111.97699 4231 ft 11 kts 174°
2026-05-04 00:37 40.78839 -111.97723 4230 ft 9 kts 235°
2026-05-04 00:37 40.78826 -111.97809 4231 ft 10 kts 264°
2026-05-04 00:38 40.78817 -111.97924 4231 ft 18 kts 264°
2026-05-04 00:38 40.78805 -111.98097 4231 ft 19 kts 265°
2026-05-04 00:38 40.78793 -111.98264 4231 ft 18 kts 264°
2026-05-04 00:38 40.78781 -111.98421 4231 ft 17 kts 264°
2026-05-04 00:39 40.78771 -111.98569 4231 ft 16 kts 264°
2026-05-04 00:39 40.78761 -111.98707 4231 ft 15 kts 264°
2026-05-04 00:39 40.78751 -111.98836 4231 ft 14 kts 264°
2026-05-04 00:39 40.78753 -111.98930 4231 ft 8 kts 307°
2026-05-04 00:40 40.78799 -111.98942 4231 ft 4 kts 354°
2026-05-04 00:40 40.78814 -111.98944 4231 ft 1 kts 355°
2026-05-04 00:40 40.78815 -111.98944 4231 ft 0 kts 355°